Home   Weather   Campo Grande   Past weeks

Flag for Brazil Past Weather in Campo Grande, Mato Grosso Do Sul, Brazil — Yesterday and Last 2 Weeks

Now
86 °F

Scattered clouds.


Feels Like: 91 °F
Forecast: 68 / 75 °F
Wind: 10 mph from Northwest

Location: Campo Grande Aeroporto

Current Time: Dec 2, 2016 at 3:08:53 pm

Latest Report: Dec 2, 2016 at 2:00 pm


Visibility: N/A

Pressure: 29.95 "Hg (28.26 "Hg at 516m altitude)

Humidity: 59%

Dew Point: 70 °F

Location of Campo GrandeLocation

Past Weather in Campo Grande — Graph

°F

Campo Grande Temperature Yesterday

Maximum temperature yesterday: 84 °F (at 3:00 pm)
Minimum temperature yesterday: 39 °F (at 11:00 pm)
Average temperature yesterday: 72 °F

High & Low Weather Summary for the Past Weeks

 TemperatureHumidityPressure
High93 °F (Nov 24, 2:00 pm)100% (Nov 29, 8:00 am)30.04 "Hg (Nov 29, 8:00 am)
Low34 °F (Nov 30, 5:00 pm)24% (Nov 29, 6:00 pm)29.80 "Hg (Nov 20, 4:00 pm)
Average76 °F62%29.92 "Hg
* Reported Nov 17 2:00 pm — Dec 2 2:00 pm, Campo Grande, Weather by CustomWeather, © 2016

Note: Actual official high and low records may vary slightly from our data, if they occured in-between our weather recording intervals... More about our weather records

Advertising

Campo Grande Weather History for the Previous 24 Hours

Scroll right to see more
 ConditionsComfort  
Time TempWeatherWind HumidityBarometerVisibility
2:00 pm
Fri, Dec 2
86 °FScattered clouds.10 mph59%29.95 "HgN/A
1:00 pm81 °FScattered clouds.8 mph70%29.98 "HgN/A
12:00 pm81 °FScattered showers. Partly sunny.12 mph70%N/AN/A
11:00 am81 °FScattered showers. Partly sunny.10 mph70%N/AN/A
10:00 am81 °FPartly sunny.9 mph70%30.04 "HgN/A
9:00 am77 °FPartly sunny.7 mph79%30.04 "HgN/A
8:00 am75 °FBroken clouds.9 mph78%30.01 "HgN/A
7:00 am73 °FBroken clouds.7 mph83%29.98 "HgN/A
6:00 am72 °FBroken clouds.10 mph88%29.98 "HgN/A
5:00 am73 °FThundershowers. Passing clouds.13 mph83%N/AN/A
4:00 am73 °FThundershowers. Passing clouds.7 mph83%N/AN/A
3:00 am73 °FPassing clouds.6 mph78%29.95 "HgN/A
2:00 am73 °FPassing clouds.3 mph83%29.95 "HgN/A
1:00 am75 °FThundershowers. Passing clouds.7 mph74%N/AN/A
12:00 am39 °FThundershowers. Passing clouds.12 mph100%29.98 "HgN/A
11:00 pm
Thu, Dec 1
39 °FThundershowers. Passing clouds.9 mph100%29.98 "HgN/A
10:00 pm41 °FThundershowers. Passing clouds.10 mph100%29.95 "HgN/A
9:00 pm41 °FThundershowers. Passing clouds.10 mph100%29.95 "HgN/A
8:00 pm79 °FPassing clouds.8 mph70%29.92 "HgN/A
7:00 pm81 °FScattered clouds.8 mph66%29.89 "HgN/A
6:00 pm82 °FScattered clouds.10 mph62%29.89 "HgN/A
5:00 pm84 °FScattered clouds.7 mph58%29.89 "HgN/A
4:00 pm84 °FScattered clouds.6 mph62%29.92 "HgN/A
3:00 pm84 °FBroken clouds.7 mph58%29.95 "HgN/A
Weather by CustomWeather, © 2016

See weather overviewHow to use our weather pages